{"data":{"norad_id":66709,"epoch":"2026-05-25T04:12:35.697888Z","epoch_age_seconds":70330,"freshness":"FRESH","line1":"1 66709U 25276AV  26145.17541317  .00005213  00000+0  24526-3 0  9999","line2":"2 66709  97.4233 219.2801 0004532  68.7938 291.3781 15.19980266 26934","mean_motion":15.19980266,"eccentricity":0.0004532,"inclination_deg":97.4233,"raan_deg":219.2801,"arg_perigee_deg":68.7938,"mean_anomaly_deg":291.3781,"bstar":0.00024526,"rev_number":2693,"period_min":94.738072079681,"perigee_km":502.78035136677,"apogee_km":509.02004268215,"semimajor_km":6884.0371970245,"source":"CELESTRAK","updated_at":"2026-05-25T13:38:13.346491Z"}}